When you browse on this site, cookies collect data to enhance your experience and personalize the content and advertising you see.
Visit our Privacy Policy to learn more. By continuing to use the site, you agree to this use of cookies and data.
  • In Portugal
  • List of Countries
  • For 7 days
  • Water Temperature
  • Satellite Maps
  • Weather Map
  • Weather Widgets
  • user-avatar
    Login

    Hourly Weather Kerman

    Today, 16 January, Wednesday

    Time Temperature Precipitation Wind Pressure Humidity
    00:00 +11°C° 0 mm 1 mps 605 mmHg 52%
    01:00 +11°C° 0 mm 1 mps 605 mmHg 53%
    02:00 +10°C° 0 mm 1 mps 605 mmHg 54%
    03:00 +10°C° 0 mm 1 mps 605 mmHg 55%
    04:00 +9°C° 0 mm 2 mps 605 mmHg 55%
    05:00 +8°C° 0 mm 2 mps 605 mmHg 56%
    06:00 +8°C° 0 mm 2 mps 605 mmHg 57%
    07:00 +8°C° 0 mm 2 mps 605 mmHg 59%
    08:00 +10°C° 0 mm 2 mps 606 mmHg 53%
    09:00 +12°C° 0 mm 2 mps 606 mmHg 47%
    10:00 +14°C° 0 mm 2 mps 607 mmHg 42%
    11:00 +14°C° 0 mm 3 mps 607 mmHg 38%
    12:00 +15°C° 0 mm 4 mps 607 mmHg 34%
    13:00 +17°C° 0 mm 5 mps 608 mmHg 31%
    14:00 +16°C° 0.3 mm 5 mps 607 mmHg 34%
    15:00 +15°C° 0.3 mm 5 mps 607 mmHg 38%
    16:00 +15°C° 0.3 mm 5 mps 606 mmHg 42%
    17:00 +14°C° 0.2 mm 4 mps 606 mmHg 45%
    18:00 +13°C° 0.2 mm 3 mps 606 mmHg 48%
    19:00 +13°C° 0.2 mm 2 mps 606 mmHg 51%
    20:00 +12°C° 0.2 mm 3 mps 606 mmHg 52%
    21:00 +12°C° 0.2 mm 3 mps 605 mmHg 52%
    22:00 +12°C° 0.2 mm 3 mps 605 mmHg 52%
    23:00 +11°C° 0 mm 3 mps 605 mmHg 52%

    Tomorrow, 17 January, Thursday

    Time Temperature Precipitation Wind Pressure Humidity
    00:00 +11°C° 0 mm 3 mps 604 mmHg 52%
    01:00 +10°C° 0 mm 2 mps 604 mmHg 52%
    02:00 +10°C° 0 mm 3 mps 604 mmHg 50%
    03:00 +10°C° 0 mm 3 mps 603 mmHg 49%
    04:00 +10°C° 0 mm 3 mps 603 mmHg 48%
    05:00 +9°C° 0 mm 3 mps 603 mmHg 47%
    06:00 +9°C° 0 mm 3 mps 602 mmHg 47%
    07:00 +9°C° 0 mm 2 mps 602 mmHg 47%
    08:00 +11°C° 0 mm 4 mps 603 mmHg 40%
    09:00 +13°C° 0 mm 5 mps 604 mmHg 33%
    10:00 +15°C° 0 mm 7 mps 605 mmHg 26%
    11:00 +16°C° 0 mm 10 mps 604 mmHg 27%
    12:00 +15°C° 0 mm 13 mps 604 mmHg 28%
    13:00 +16°C° 0 mm 16 mps 603 mmHg 29%
    14:00 +17°C° 0 mm 15 mps 603 mmHg 28%
    15:00 +15°C° 0 mm 15 mps 602 mmHg 26%
    16:00 +15°C° 0 mm 14 mps 601 mmHg 24%
    17:00 +14°C° 0 mm 12 mps 601 mmHg 27%
    18:00 +13°C° 0 mm 10 mps 600 mmHg 30%
    19:00 +12°C° 0 mm 8 mps 600 mmHg 32%
    20:00 +11°C° 0 mm 9 mps 600 mmHg 39%
    21:00 +11°C° 0 mm 11 mps 599 mmHg 45%
    22:00 +9°C° 0 mm 12 mps 599 mmHg 52%
    23:00 +9°C° 0 mm 13 mps 599 mmHg 53%

    Day after tomorrow, 18 January, Friday

    Time Temperature Precipitation Wind Pressure Humidity
    00:00 +8°C° 0 mm 14 mps 599 mmHg 55%
    01:00 +8°C° 0 mm 14 mps 599 mmHg 57%
    02:00 +7°C° 0 mm 12 mps 599 mmHg 57%
    03:00 +6°C° 0 mm 11 mps 599 mmHg 57%
    04:00 +5°C° 0 mm 9 mps 599 mmHg 57%
    05:00 +5°C° 0 mm 7 mps 599 mmHg 60%
    06:00 +5°C° 0 mm 4 mps 599 mmHg 62%
    07:00 +5°C° 0 mm 2 mps 600 mmHg 64%
    08:00 +6°C° 0 mm 2 mps 601 mmHg 53%
    09:00 +8°C° 0 mm 2 mps 602 mmHg 41%
    10:00 +9°C° 0 mm 3 mps 603 mmHg 30%
    11:00 +9°C° 0 mm 5 mps 603 mmHg 25%
    12:00 +10°C° 0 mm 7 mps 603 mmHg 21%
    13:00 +12°C° 0 mm 9 mps 603 mmHg 16%
    14:00 +12°C° 0 mm 9 mps 603 mmHg 16%
    15:00 +12°C° 0 mm 10 mps 602 mmHg 16%
    16:00 +11°C° 0 mm 10 mps 602 mmHg 16%
    17:00 +10°C° 0 mm 8 mps 602 mmHg 16%
    18:00 +9°C° 0 mm 7 mps 602 mmHg 16%
    19:00 +8°C° 0 mm 5 mps 602 mmHg 15%
    20:00 +7°C° 0 mm 5 mps 602 mmHg 19%
    21:00 +7°C° 0 mm 4 mps 601 mmHg 22%
    22:00 +6°C° 0 mm 4 mps 601 mmHg 26%
    23:00 +5°C° 0 mm 3 mps 601 mmHg 31%

    19 January, Saturday

    Time Temperature Precipitation Wind Pressure Humidity
    00:00 +5°C° 0 mm 3 mps 600 mmHg 36%
    01:00 +4°C° 0 mm 3 mps 600 mmHg 41%
    02:00 +4°C° 0 mm 3 mps 600 mmHg 43%
    03:00 +3°C° 0 mm 3 mps 599 mmHg 44%
    04:00 +3°C° 0 mm 3 mps 599 mmHg 46%
    05:00 +3°C° 0 mm 3 mps 599 mmHg 45%
    06:00 +2°C° 0 mm 3 mps 599 mmHg 45%
    07:00 +2°C° 0 mm 3 mps 599 mmHg 44%
    08:00 +4°C° 0 mm 4 mps 600 mmHg 35%
    09:00 +6°C° 0 mm 5 mps 601 mmHg 25%
    10:00 +8°C° 0 mm 7 mps 602 mmHg 16%
    11:00 +7°C° 0 mm 8 mps 601 mmHg 15%
    12:00 +8°C° 0 mm 10 mps 601 mmHg 14%
    13:00 +9°C° 0 mm 11 mps 601 mmHg 13%
    14:00 +8°C° 0 mm 10 mps 601 mmHg 13%
    15:00 +8°C° 0 mm 9 mps 601 mmHg 13%
    16:00 +7°C° 0 mm 8 mps 600 mmHg 13%
    17:00 +5°C° 0 mm 7 mps 600 mmHg 20%
    18:00 +3°C° 0 mm 6 mps 600 mmHg 27%
    19:00 +1°C° 0 mm 6 mps 600 mmHg 34%
    20:00 +1°C° 0 mm 5 mps 601 mmHg 36%
    21:00 0°C° 0 mm 4 mps 601 mmHg 38%
    22:00 0°C° 0 mm 3 mps 602 mmHg 40%
    23:00 +1°C° 0 mm 2 mps 602 mmHg 43%

    20 January, Sunday

    Time Temperature Precipitation Wind Pressure Humidity
    00:00 -1°C° 0 mm 2 mps 602 mmHg 46%
    01:00 -1°C° 0 mm 2 mps 602 mmHg 48%
    02:00 0°C° 0 mm 1 mps 602 mmHg 51%
    03:00 0°C° 0 mm 1 mps 602 mmHg 53%
    04:00 -1°C° 0 mm 1 mps 602 mmHg 56%
    05:00 -1°C° 0 mm 1 mps 602 mmHg 57%
    06:00 -1°C° 0 mm 1 mps 602 mmHg 58%
    07:00 -2°C° 0 mm 0 mps 603 mmHg 59%
    08:00 0°C° 0 mm 1 mps 603 mmHg 54%
    09:00 +1°C° 0 mm 1 mps 604 mmHg 48%
    10:00 +1°C° 0 mm 1 mps 604 mmHg 42%
    11:00 +3°C° 0 mm 1 mps 604 mmHg 37%
    12:00 +3°C° 0 mm 2 mps 604 mmHg 32%
    13:00 +4°C° 0 mm 2 mps 603 mmHg 27%
    14:00 +4°C° 0 mm 2 mps 603 mmHg 26%
    15:00 +3°C° 0 mm 3 mps 603 mmHg 24%
    16:00 +4°C° 0 mm 3 mps 603 mmHg 22%
    17:00 +3°C° 0 mm 3 mps 603 mmHg 24%
    18:00 +3°C° 0 mm 2 mps 603 mmHg 25%
    19:00 +3°C° 0 mm 2 mps 603 mmHg 26%
    20:00 +2°C° 0 mm 2 mps 603 mmHg 27%
    21:00 +3°C° 0 mm 1 mps 603 mmHg 28%
    22:00 +2°C° 0 mm 1 mps 603 mmHg 30%
    23:00 +2°C° 0 mm 1 mps 603 mmHg 30%

    21 January, Monday

    Time Temperature Precipitation Wind Pressure Humidity
    00:00 +1°C° 0 mm 1 mps 602 mmHg 31%
    01:00 +1°C° 0 mm 1 mps 602 mmHg 32%
    02:00 0°C° 0 mm 0 mps 602 mmHg 31%
    03:00 -1°C° 0 mm 0 mps 601 mmHg 31%
    04:00 -1°C° 0 mm 0 mps 601 mmHg 30%
    05:00 -1°C° 0 mm 0 mps 601 mmHg 29%
    06:00 -1°C° 0 mm 0 mps 601 mmHg 28%
    07:00 -1°C° 0 mm 0 mps 601 mmHg 27%
    08:00 0°C° 0 mm 0 mps 602 mmHg 23%
    09:00 +1°C° 0 mm 0 mps 603 mmHg 20%
    10:00 +3°C° 0 mm 0 mps 603 mmHg 17%
    11:00 +5°C° 0 mm 1 mps 603 mmHg 16%
    12:00 +6°C° 0 mm 1 mps 603 mmHg 16%
    13:00 +7°C° 0 mm 1 mps 602 mmHg 15%
    14:00 +7°C° 0 mm 1 mps 602 mmHg 15%
    15:00 +6°C° 0 mm 2 mps 602 mmHg 14%
    16:00 +7°C° 0 mm 2 mps 602 mmHg 14%
    17:00 +6°C° 0 mm 2 mps 602 mmHg 16%
    18:00 +5°C° 0 mm 2 mps 601 mmHg 18%
    19:00 +6°C° 0 mm 1 mps 601 mmHg 20%
    20:00 +5°C° 0 mm 1 mps 601 mmHg 21%
    21:00 +4°C° 0 mm 1 mps 601 mmHg 22%
    22:00 +4°C° 0 mm 1 mps 601 mmHg 22%
    23:00 +3°C° 0 mm 1 mps 600 mmHg 23%
    Show more